Regional Weather Roundup
Issued by NWS

Home | Current Version | Previous Version | Text Only | Print | Product List | Glossary On
Versions: 1 2 3 4 5 6 7 8 9 10 11 12 13 14 15 16 17 18 19 20 21 22 23 24 25 26 27 28 29 30 31 32 33 34 35 36 37 38 39 40 41 42 43 44 45 46 47 48 49 50
000
ASUS43 KMPX 281010
RWRMN
WEATHER ROUNDUP FOR MINNESOTA
NATIONAL WEATHER SERVICE TWIN CITIES/CHANHASSEN MN
500 AM CDT FRI JUL 28 2017


NOTE: "FAIR" INDICATES FEW OR NO CLOUDS BELOW 12,000 FEET WITH NO
SIGNIFICANT WEATHER AND/OR OBSTRUCTIONS TO VISIBILITY. N/A MEANS
CURRENT SKY AND/OR WEATHER CONDITIONS ARE NOT AVAILABLE.

MNZ060>063-068>070-281100-
   Twin Cities Metro

CITY           SKY/WX    TMP DP  RH WIND       PRES   REMARKS
TWIN CITIES    PTCLDY    66  60  81 N3        30.07S
ST PAUL        CLEAR     65  60  84 N5        30.07S
CRYSTAL        CLEAR     61  57  87 CALM      30.06S
BLAINE         CLEAR     63  61  94 CALM      30.08R
LAKEVILLE      CLEAR     57  57 100 CALM      30.07R
EDEN PRAIRIE   CLEAR     66  62  87 N3        30.06S
SOUTH ST PAUL  CLEAR     66  58  75 CALM      30.07R
LAKE ELMO      FAIR      59  59 100 CALM      30.09R
$$
MNZ001>005-007-008-013>017-022>024-027-028-281100-
   Northwest Minnesota

CITY           SKY/WX    TMP DP  RH WIND       PRES   REMARKS
BEMIDJI        FOG       53  52  98 CALM      30.11S VSB 1/4
HALLOCK        CLEAR     55  55 100 SE3       30.06S
ROSEAU         CLEAR     57  54  88 CALM      30.08S
WARROAD        PTCLDY    57  54  88 CALM      30.09S
THIEF RVR FALL CLEAR     58  58 100 CALM      30.10R FOG
CROOKSTON      CLEAR     61  59  94 CALM      30.09S
FOSSTON        CLEAR     54  52  94 CALM      30.11R
DETROIT LAKES  CLEAR     61  59  94 CALM      30.12S
MOORHEAD       CLEAR     63  57  82 CALM      30.08S
PARK RAPIDS    CLEAR     56  54  93 CALM      30.11R FOG
MAHNOMEN       FAIR      56  55  97 E3        30.10S
$$
MNZ006-009>011-018-025>026-281100-
   North Central Minnesota

CITY           SKY/WX    TMP DP  RH WIND       PRES   REMARKS
BAUDETTE       FOG       57  57 100 CALM      30.08S VSB 1
FLAG ISLAND    CLEAR     68  64  88 CALM      30.07S FOG
INTL FALLS     CLEAR     52  50  93 SE5       30.10S
WASKISH        CLEAR     54  54 100 CALM      30.10S
BIG FORK       CLEAR     52  50  93 CALM      30.12R
LONGVILLE      PTCLDY    54  54 100 CALM      30.10S FOG
GRAND RAPIDS   CLEAR     55  55 100 CALM      30.14R FOG
CRANE LAKE     CLEAR     48  48 100 CALM      30.12S
ORR            CLEAR     52  48  87 CALM      30.10R
COOK             N/A     52  52 100 CALM      30.13R
WALKER         FAIR      56  55  99 CALM      30.11S FOG
$$
MNZ012-019>021-037-281100-
   Northeast Minnesota

CITY           SKY/WX    TMP DP  RH WIND       PRES   REMARKS
DULUTH         CLEAR     53  51  93 N3        30.12R
ELY            CLEAR     48  48 100 CALM      30.13R
HIBBING        MOCLDY    47  47 100 CALM      30.13R FOG
EVELETH        CLEAR     47  45  91 CALM      30.14R
DULUTH HARBOR  CLEAR     63  57  82 NE3       30.12R
SILVER BAY     CLEAR     50  48  93 CALM      30.10S
GRAND MARAIS     N/A     58  54  86 CALM      30.09S
G MARAIS ARPRT CLEAR     48  45  87 CALM      30.14S
$$
MNZ029>031-032-039>041-046>048-054>057-064-281100-
   West Central Minnesota

CITY           SKY/WX    TMP DP  RH WIND       PRES   REMARKS
FERGUS FALLS   CLEAR     66  61  82 E6        30.08S
WHEATON        CLEAR     61  57  88 CALM      30.09S
MORRIS         CLEAR     61  57  88 E3        30.08R
ALEXANDRIA     PTCLDY    61  60  97 E3        30.11S
ELBOW LAKE     FAIR      62  60  92 CALM      30.10R
WADENA         CLEAR     54  54 100 CALM      30.10S
GLENWOOD       PTCLDY    61  61 100 NE3       30.11R
APPLETON       CLOUDY    63  59  88 CALM      30.08R
BENSON         FOG       57  55  94 CALM      30.10S VSB<1/4
ORTONVILLE       N/A     64  61  88 CALM        N/A
MADISON        CLOUDY    64  64 100 CALM      30.08S
WILLMAR        FAIR      63  61  94 CALM      30.10R
$$
MNZ033>034-036-042>043-049>051-058-059-281100-
   Central Minnesota

CITY           SKY/WX    TMP DP  RH WIND       PRES   REMARKS
ST CLOUD       CLEAR     59  58  96 CALM      30.09R
SAUK CENTRE    FAIR      58  58  99 CALM      30.10S
PAYNESVILLE    CLEAR     58  57  96 CALM      30.10R
AITKIN         FOG       52  48  87 CALM      30.10R VSB 1
PINE RIVER     CLEAR     55  54  94 CALM      30.13S
BRAINERD       CLEAR     59  58  96 CALM      30.10S
STAPLES        CLEAR     57  57 100 CALM      30.10S
LONG PRAIRIE   FAIR      61  59  94 CALM      30.10S
LITTLE FALLS   FOG       55  54  94 CALM      30.10S VSB 1/2
LITCHFIELD     PTCLDY    64  63  94 CALM      30.09S
BUFFALO        CLEAR     62  59  89 CALM      30.09S
MAPLE LAKE     CLEAR     62  62  97 CALM      30.10R
HUTCHINSON     CLEAR     61  60  97 CALM      30.09R
$$
MNZ037-044-045-052-053-281100-
   East Central Minnesota

CITY           SKY/WX    TMP DP  RH WIND       PRES   REMARKS
PRINCETON      CLEAR     57  57 100 CALM      30.09S
MORA           CLEAR     55  55 100 CALM      30.11S
CAMBRIDGE      CLEAR     61  54  77 CALM      30.07S
RUSH CITY      PTCLDY    56  55  95 CALM      30.10R FOG
MOOSE LAKE     CLEAR     55  54  94 CALM      30.09S
HINCKLEY       FAIR      55  55 100 CALM      30.10S
CLOQUET        CLEAR     52  48  87 NW3       30.12R
MCGREGOR       CLEAR     55  54  94 CALM      30.12R
$$
MNZ071>073-080-081-089-090-097-098-281100-
   Southwest Minnesota

CITY           SKY/WX    TMP DP  RH WIND       PRES   REMARKS
MONTEVIDEO     CLOUDY    61  55  82 CALM      30.09R
CANBY          CLOUDY    64  62  92 CALM      30.09S
MARSHALL       CLOUDY    62  61  96 CALM      30.08S
REDWOOD FALLS  PTCLDY    64  60  87 CALM      30.07R
OLIVIA         PTCLDY    63  59  88 NE3       30.07R
PIPESTONE      PTCLDY    63  59  88 CALM      30.09F
WINDOM         PTCLDY    61  57  88 CALM      30.08S
WORTHINGTON    CLEAR     58  56  93 CALM      30.09S
JACKSON        PTCLDY    59  59 100 CALM      30.08S
TRACY          MOCLDY    65  63  90 W3        30.09R
SLAYTON        HVY RAIN  58  56  93 NW5       30.11R
$$
MNZ065>067-074>077-082>085-091>093-281100-
   South Central Minnesota

CITY           SKY/WX    TMP DP  RH WIND       PRES   REMARKS
MANKATO        PTCLDY    65  61  87 CALM      30.07R
NEW ULM        CLOUDY    64  59  82 NE3       30.06S
ST JAMES       PTCLDY    61  59  94 CALM      30.08R
FAIRMONT       PTCLDY    61  60  97 NW3       30.07R
GLENCOE        MOCLDY    63  63 100 CALM      30.08R
FARIBAULT      PTCLDY    61  61 100 CALM      30.07R
OWATONNA       FOG       59  57  94 CALM      30.07R VSB 1/2
WASECA         PTCLDY    59  57  94 NE5       30.08R
ALBERT LEA     PTCLDY    64  63  94 CALM      30.06S
$$
MNZ078>079-086>088-094>096-281100-
   Southeast Minnesota

CITY           SKY/WX    TMP DP  RH WIND       PRES   REMARKS
ROCHESTER      CLEAR     61  60  97 N3        30.06F
RED WING       CLEAR     61  57  88 CALM      30.05S
STANTON        CLEAR     60  58  95 CALM      30.06R FOG
DODGE CENTER   CLEAR     61  57  88 N3        30.06F
WINONA         CLEAR     61  61 100 CALM      30.05R
AUSTIN         CLEAR     61  57  88 CALM      30.05S
PRESTON        CLEAR     61  58  91 N3        30.06S
$$
ABBREVIATIONS USED IN REMARKS
   TC - TEMPERATURES IN CELSIUS
  WCI - WIND CHILL INDEX
   HX - HEAT INDEX
  VSB - VISIBILITY
$$




USA.gov is the U.S. government's official web portal to all federal, state and local government web resources and services.